Regional Weather Roundup
Issued by NWS Midland/Odessa, TX

Skip options and go directly to product.
Home | Oldest Version | Previous Version | Current Version | All | Text Only | Save Text | Print | Product List | Glossary On

Skip product version selection by date and time.   
091
ASUS44 KMAF 251810
RWRMAF
MIDLAND AREA WEATHER ROUNDUP
NATIONAL WEATHER SERVICE MIDLAND TX
100 PM CDT WED MAY 25 2016

...IN SOUTHWEST TEXAS AND SOUTHEAST NEW MEXICO...

CITY           SKY/WX    TMP DP  RH WIND       PRES   REMARKS
ALPINE         SUNNY     91  36  14 W21G28    30.15F
ANDREWS        FAIR      90  26  10 W13G21    30.03S
ARTESIA        SUNNY     88  19   8 SW20G33   30.01F
BIG SPRING     SUNNY     90  40  17 W8        30.01F
CARLSBAD       SUNNY     90  22   8 W16G32    30.01F
DRYDEN           N/A     88  73  61 E9        30.00S
FORT STOCKTON  SUNNY     92  26   9 CALM      30.03F
GUAD PASS      NOT AVBL
HOBBS          SUNNY     88  18   7 SW23G31   30.04F
MARFA          SUNNY     89  38  16 SW21G26   30.13F
MIDLAND AIRPK  SUNNY     95  26   8 W15G21    30.01F
MIDLAND INTL   SUNNY     95  27   9 W13G23    30.01S
ODESSA         SUNNY     94  25   8 W18       30.02F
PECOS          SUNNY     94  27   9 W15G22    29.99F
PRESIDIO       FAIR      93  36  13 S9        30.02S
SEMINOLE       SUNNY     89  28  11 W15G21    30.04S
SNYDER           N/A     88  59  37 W8        29.98F
WINK           SUNNY     91  26   9 MISG      30.00F
$$
...OTHER STATIONS IN TEXAS...

CITY           SKY/WX    TMP DP  RH WIND       PRES   REMARKS
ABILENE        PTSUNNY   88  71  57 SW14      29.96F
AMARILLO       SUNNY     85  31  14 NE5       30.00S
AUSTIN         CLOUDY    85  76  74 S10       30.00R
BROWNSVILLE    PTSUNNY   88  77  70 SE17G24   29.97S HX 100
CORPUS CHRISTI PTSUNNY   88  77  69 SE18      29.98F HX 100
DALLAS FTW     CLOUDY    82  71  69 S16       29.97R
DEL RIO        CLOUDY    81  76  84 S5        29.97R HAZE
EL PASO        MOSUNNY   84  30  14 W8G21     30.07F
HOUSTON INT    PTSUNNY   86  72  62 S12G22    30.03S
LUBBOCK        SUNNY     89  32  13 W7        29.99F
SAN ANGELO     CLOUDY    88  72  58 SW15      29.98R
SAN ANTONIO    CLOUDY    83  74  74 S14       30.01R
WACO           CLOUDY    85  72  65 S22       29.95F
WICHITA FALLS  NOT AVBL
$$
...OTHER LOCATIONS IN NEW MEXICO...

CITY           SKY/WX    TMP DP  RH WIND       PRES   REMARKS
ALAMAGORDO     SUNNY     81  19  10 S15       30.10S
ALBUQUERQUE    SUNNY     71  16  12 CALM      30.13F
CANNON AFB     MOSUNNY   82  20  10 W21       30.04S
CLOVIS         SUNNY     82  28  14 SW17      30.04S
HOLLOMAN AFB   SUNNY     81  13   7 VRB7G24   30.07F
ROSWELL        SUNNY     89  18   7 SW10G21   30.00F
RUIDOSO          N/A     70  12  11 SW17G24   30.22S
SANTA FE       SUNNY     71  10   9 SW14G22   30.14F
TRUTH OR CONSE SUNNY     75  20  12 S5        30.09F
TUCUMCARI      SUNNY     86  17   8 W15G30    29.99S
$$

USA.gov is the U.S. government's official web portal to all federal, state and local government web resources and services.